Date,TemperatureHighF,TemperatureAvgF,TemperatureLowF,DewpointHighF,DewpointAvgF,DewpointLowF,HumidityHigh,HumidityAvg,HumidityLow,PressureMaxIn,PressureMinIn,WindSpeedMaxMPH,WindSpeedAvgMPH,GustSpeedMaxMPH,PrecipitationSumIn
2014-1-1,26,21,19,17,15,14,87,78,65,30.30,30.10,4,0,7,0.00
2014-1-2,22,18,12,17,13,4,85,80,73,30.10,29.84,14,3,21,0.00
2014-1-3,16,12,10,4,0,-5,70,58,45,30.37,30.07,14,3,21,0.00
2014-1-4,34,24,12,14,4,-4,55,42,27,30.21,29.98,18,7,27,0.00
2014-1-5,43,36,32,42,24,14,99,63,42,30.06,29.28,11,2,18,0.25
2014-1-6,33,6,-13,32,-4,-30,99,63,39,30.12,29.33,14,4,22,0.01
2014-1-7,4,-4,-13,-12,-21,-29,50,42,32,30.32,30.11,14,3,21,0.00
2014-1-8,22,14,3,12,1,-12,71,56,42,30.45,30.31,11,2,15,0.00
2014-1-9,29,21,9,28,13,3,99,71,51,30.55,30.29,12,2,14,0.00
2014-1-10,45,36,29,44,36,28,99,97,91,30.29,29.75,19,6,24,0.09
2014-1-11,50,44,34,50,42,26,99,90,73,29.75,29.32,14,5,23,0.15
2014-1-12,38,35,33,30,27,24,83,73,61,29.96,29.67,18,5,28,0.00
2014-1-13,50,45,37,44,34,26,98,68,48,29.83,29.66,18,7,27,0.05
2014-1-14,45,39,34,44,29,22,97,69,46,29.81,29.67,10,2,15,0.00
2014-1-15,36,28,25,30,14,5,80,54,42,29.99,29.76,15,3,22,0.00
2014-1-16,29,25,20,23,13,6,81,60,41,29.96,29.71,17,5,28,0.00
2014-1-17,40,30,14,33,21,1,97,71,56,29.93,29.69,13,4,30,0.00
2014-1-18,22,16,10,12,4,-2,77,58,46,29.96,29.79,11,3,20,0.00
2014-1-19,34,25,18,19,16,12,82,67,52,29.79,29.59,15,4,33,0.00
2014-1-20,36,27,17,29,18,8,93,69,55,29.96,29.54,15,2,23,0.00
2014-1-21,17,12,6,10,-3,-14,74,53,33,30.10,29.91,12,3,19,0.00
2014-1-22,14,8,4,-1,-7,-12,64,49,35,30.09,29.95,8,1,13,0.00
2014-1-23,12,9,5,6,1,-3,77,69,63,30.41,29.93,6,1,11,0.00
2014-1-24,18,8,-1,-3,-9,-12,70,47,30,30.42,29.66,20,4,32,0.00
2014-1-25,29,18,11,26,12,-6,93,79,33,29.73,29.28,18,5,30,0.00
2014-1-26,32,17,6,23,8,-5,85,65,52,29.76,29.40,14,4,24,0.00
2014-1-27,36,14,0,26,-1,-12,85,53,29,30.26,29.34,15,4,27,0.00
2014-1-28,10,1,-8,-11,-19,-28,59,40,22,30.37,30.20,10,2,16,0.00
2014-1-29,17,9,-1,-5,-13,-24,49,35,25,30.23,30.13,11,3,21,0.00
2014-1-30,31,19,9,1,-6,-10,46,32,21,30.22,29.81,24,6,36,0.00
2014-1-31,38,33,31,26,15,1,83,51,27,30.15,29.90,10,2,12,0.00
2014-2-1,43,36,31,42,32,24,99,85,68,30.12,29.81,12,3,20,0.52
2014-2-2,36,27,22,35,24,17,99,90,79,30.21,29.90,5,1,9,0.02
2014-2-3,27,20,12,18,12,7,82,69,50,30.35,30.16,6,1,10,0.00
2014-2-4,30,20,12,18,11,6,85,70,42,30.41,30.05,5,1,9,0.00
2014-2-5,24,22,16,20,17,7,87,81,65,30.28,29.67,12,2,20,0.00
2014-2-6,27,15,4,9,4,-11,79,62,44,30.34,30.25,9,2,19,0.00
2014-2-7,17,6,-2,-6,-13,-16,54,42,25,30.34,30.29,11,2,16,0.00
2014-2-8,23,13,5,8,-6,-13,73,43,23,30.31,30.13,7,1,11,0.00
2014-2-9,25,19,16,18,11,7,82,72,61,30.13,29.95,8,2,13,0.00
2014-2-10,23,16,13,9,6,1,74,64,50,30.31,30.12,4,1,9,0.00
2014-2-11,18,11,6,6,1,-2,73,64,56,30.44,30.31,5,1,8,0.00
2014-2-12,32,17,2,11,0,-6,74,51,23,30.42,30.05,11,2,14,0.02
2014-2-13,38,23,15,14,6,-1,71,50,24,30.06,29.53,6,1,8,0.05
2014-2-14,30,26,22,26,16,8,89,65,43,29.74,29.43,9,2,16,0.00
2014-2-15,22,17,11,17,8,0,86,68,52,30.05,29.72,7,2,12,0.00
2014-2-16,26,16,8,16,8,0,79,71,62,30.32,29.93,8,1,11,0.00
2014-2-17,32,18,1,32,4,-7,99,59,24,30.35,29.62,20,5,31,0.00
2014-2-18,43,33,25,33,25,18,99,74,42,30.02,29.65,15,4,24,0.08
2014-2-19,51,41,33,34,28,20,86,61,40,30.08,29.61,13,3,21,0.00
2014-2-20,57,41,32,46,34,21,99,78,44,30.08,29.53,20,5,35,0.21
2014-2-21,56,42,36,53,29,9,99,62,31,29.87,29.47,17,6,33,0.19
2014-2-22,46,40,34,33,20,7,88,47,22,30.00,29.79,13,4,24,0.02
2014-2-23,38,32,25,34,22,5,95,66,42,30.06,29.96,10,2,18,0.01
2014-2-24,26,23,21,14,8,4,73,51,42,30.13,30.02,11,3,24,0.01
2014-2-25,27,21,17,15,10,4,83,61,47,30.11,29.94,9,2,18,0.02
2014-2-26,20,15,10,16,-2,-14,84,48,25,30.08,29.68,9,2,15,0.00
2014-2-27,18,13,7,10,-6,-22,78,44,22,30.15,29.54,13,4,23,0.00
2014-2-28,25,13,2,-5,-12,-22,46,31,21,30.29,30.08,11,2,18,0.00
2014-3-1,46,30,20,24,7,-8,82,41,21,30.18,30.03,11,3,17,0.01
2014-3-2,21,14,9,16,2,-11,83,60,32,30.25,30.16,7,2,11,0.00
2014-3-3,16,7,3,-5,-9,-16,57,47,31,30.40,30.24,7,1,11,0.00
2014-3-4,26,14,3,5,-5,-19,58,44,21,30.37,30.16,10,1,12,0.00
2014-3-5,28,20,15,8,2,-1,57,46,35,30.44,30.19,8,2,15,0.00
2014-3-6,38,26,15,13,2,-9,50,36,21,30.42,30.13,14,3,17,0.01
2014-3-7,52,37,27,26,19,10,74,48,33,30.13,29.90,13,4,18,0.00
2014-3-8,39,31,23,34,26,16,94,83,69,30.12,29.89,4,1,9,0.00
2014-3-9,38,29,18,23,17,12,88,63,42,30.21,29.88,10,2,19,0.09
2014-3-10,59,47,38,40,31,23,65,54,40,29.88,29.59,17,3,20,0.00
2014-3-11,60,47,39,41,38,34,96,72,45,29.72,29.64,7,1,13,0.00
2014-3-12,44,32,12,39,27,-6,99,85,43,29.90,29.30,13,4,26,0.28
2014-3-13,27,18,11,4,-7,-13,51,33,24,30.13,29.88,8,3,14,0.00
2014-3-14,59,44,27,38,23,5,62,43,35,30.01,29.61,19,6,35,0.08
2014-3-15,48,38,28,32,23,10,71,55,36,30.19,29.70,13,3,20,0.00
2014-3-16,28,20,15,12,-3,-13,53,35,25,30.32,30.12,6,3,13,0.00
2014-3-17,38,24,13,12,-1,-16,47,33,21,30.12,29.87,10,2,12,0.00
2014-3-18,53,40,29,29,20,11,52,44,34,30.02,29.89,14,4,27,0.00
2014-3-19,50,45,38,47,36,25,95,72,49,29.90,29.67,20,7,32,0.17
2014-3-20,38,36,33,34,24,18,85,62,48,30.02,29.83,12,3,22,0.00
2014-3-21,47,36,27,33,25,15,85,63,45,30.08,29.75,17,3,23,0.00
2014-3-22,48,39,34,38,29,22,94,69,57,30.13,29.63,18,3,28,0.00
2014-3-23,34,23,19,28,10,0,85,58,43,30.31,30.13,10,2,14,0.00
2014-3-24,31,23,18,15,7,-3,65,50,27,30.31,30.06,8,2,14,0.00
2014-3-25,39,26,20,27,12,0,94,58,22,30.06,29.88,12,2,21,0.00
2014-3-26,28,21,14,21,5,-6,94,50,34,30.30,30.05,10,2,16,0.05
2014-3-27,50,35,23,38,16,5,83,46,37,30.24,29.77,18,7,27,0.15
2014-3-28,56,47,37,51,41,33,99,82,51,30.16,29.68,17,5,27,0.02
2014-3-29,38,35,32,38,34,32,99,97,92,30.17,29.91,12,3,18,0.01
2014-3-30,41,34,29,32,28,22,99,80,58,30.13,29.98,9,2,14,0.18
2014-3-31,59,43,27,32,25,15,87,54,21,30.20,30.05,5,1,11,0.00
2014-4-1,75,56,46,47,34,24,71,44,28,30.04,29.76,18,6,32,0.01
2014-4-2,54,45,39,38,31,27,73,59,43,30.16,30.03,9,2,15,0.00
2014-4-3,47,43,38,46,35,24,99,76,42,30.15,29.77,8,1,13,0.83
2014-4-4,65,51,39,62,50,32,99,95,76,29.79,29.41,17,5,24,0.24
2014-4-5,45,37,32,32,26,22,77,65,45,30.18,29.78,16,4,23,0.00
2014-4-6,56,42,30,28,24,16,80,51,24,30.20,30.00,8,1,12,0.00
2014-4-7,57,46,38,47,35,25,99,69,43,30.00,29.36,11,2,16,0.54
2014-4-8,56,45,37,43,36,29,99,74,43,29.75,29.32,11,2,17,0.20
2014-4-9,51,44,38,36,31,21,85,60,35,30.01,29.75,8,2,11,0.00
2014-4-10,72,57,45,51,35,28,99,47,25,29.98,29.75,24,6,33,0.27
2014-4-11,62,53,45,52,43,33,99,71,40,30.06,29.94,8,1,11,0.17
2014-4-12,73,62,48,43,36,24,74,43,19,30.15,29.90,18,4,27,0.00
2014-4-13,78,71,64,53,48,43,55,45,33,29.92,29.75,20,4,33,0.00
2014-4-14,73,62,42,59,50,42,99,68,38,29.75,29.60,21,5,40,0.73
2014-4-15,42,31,28,42,25,13,99,81,49,30.20,29.67,8,3,16,0.21
2014-4-16,46,35,24,20,12,2,75,42,24,30.46,30.20,10,2,14,0.11
2014-4-17,68,51,36,32,20,10,44,31,19,30.37,30.28,21,5,28,0.00
2014-4-18,67,54,48,42,33,25,77,46,32,30.29,30.23,11,3,18,0.00
2014-4-19,57,46,36,41,30,21,88,57,29,30.41,30.27,8,2,13,0.00
2014-4-20,75,58,38,32,25,17,77,34,12,30.31,30.11,16,3,20,0.00
2014-4-21,82,68,55,44,29,18,43,24,15,30.12,29.79,10,3,18,0.00
2014-4-22,68,52,40,56,46,33,99,79,44,29.89,29.68,11,2,16,0.14
2014-4-23,49,41,36,35,31,26,89,68,47,30.13,29.89,10,2,14,0.00
2014-4-24,57,46,35,29,16,7,78,31,15,30.18,29.89,11,2,13,0.00
2014-4-25,58,50,41,53,33,6,99,62,21,29.89,29.62,16,5,24,0.26
2014-4-26,58,48,38,44,37,27,99,69,38,30.08,29.78,11,3,18,0.00
2014-4-27,56,45,33,38,31,25,99,61,34,30.16,30.06,8,2,12,0.00
2014-4-28,57,50,45,48,37,29,91,61,37,30.06,29.78,14,3,19,0.09
2014-4-29,71,57,52,56,51,46,98,81,58,29.93,29.64,22,9,35,0.51
2014-4-30,57,53,50,56,51,47,99,94,85,29.96,29.73,16,5,27,0.53
2014-5-1,59,53,47,56,39,31,98,62,38,29.86,29.78,11,3,21,0.05
2014-5-2,58,51,47,43,39,36,77,63,50,29.85,29.78,10,2,17,0.00
2014-5-3,62,53,48,48,40,33,85,62,44,29.86,29.68,16,3,26,0.04
2014-5-4,63,51,42,40,34,25,83,54,28,30.09,29.82,12,2,21,0.00
2014-5-5,56,46,39,46,37,27,91,72,35,30.09,29.94,8,1,12,0.09
2014-5-6,62,51,39,40,34,28,90,57,31,30.07,29.96,6,2,11,0.00
2014-5-7,72,59,47,50,41,24,86,51,35,30.11,29.97,12,3,18,0.06
2014-5-8,87,74,59,58,53,47,67,49,35,30.05,29.95,12,4,21,0.00
2014-5-9,83,73,59,64,54,48,87,53,32,30.01,29.81,16,4,27,0.20
2014-5-10,70,62,59,59,44,20,95,55,17,30.00,29.86,7,2,11,0.01
2014-5-11,80,66,50,56,46,21,95,54,15,30.13,30.00,11,2,14,0.00
2014-5-12,79,69,64,68,62,55,99,80,51,30.14,30.01,11,3,18,0.92
2014-5-13,90,74,65,65,62,55,93,69,33,30.08,29.97,15,4,21,0.02
2014-5-14,72,64,56,65,61,53,99,89,59,30.13,29.92,7,1,13,0.99
2014-5-15,68,61,48,65,56,41,99,84,64,30.00,29.77,18,3,24,0.54
2014-5-16,53,46,42,42,36,28,84,68,45,30.02,29.95,8,1,10,0.00
2014-5-17,54,46,40,46,38,30,98,75,46,30.21,29.99,5,1,10,0.24
2014-5-18,65,53,39,40,31,19,99,52,18,30.29,30.21,6,1,8,0.00
2014-5-19,70,61,45,39,29,22,73,33,18,30.32,30.18,6,1,8,0.00
2014-5-20,78,65,55,59,42,31,72,45,31,30.21,29.93,148,3,148,0.00
2014-5-21,79,72,64,68,60,54,95,68,50,29.94,29.84,8,1,13,0.11
2014-5-22,70,64,55,64,51,45,92,67,45,30.03,29.84,7,1,11,0.00
2014-5-23,62,56,51,52,46,41,88,68,52,30.15,30.01,5,1,8,0.00
2014-5-24,74,63,50,54,44,34,99,54,26,30.21,30.13,24,1,24,0.00
2014-5-25,80,67,53,49,43,36,75,47,23,30.20,30.11,4,1,7,0.00
2014-5-26,86,75,62,53,47,42,55,38,24,30.13,29.97,7,2,12,0.00
2014-5-27,86,77,71,64,61,56,76,58,44,29.99,29.89,7,1,11,0.00
2014-5-28,77,70,64,66,60,49,99,72,45,30.09,29.92,5,1,8,0.02
2014-5-29,71,64,57,54,50,45,84,62,43,30.16,30.06,6,1,11,0.00
2014-5-30,77,65,53,56,50,40,99,64,30,30.21,30.14,5,1,8,0.00
2014-5-31,80,68,55,54,44,26,86,47,18,30.25,30.19,8,1,11,0.00
2014-6-1,87,74,62,60,48,37,60,40,25,30.22,30.06,11,3,16,0.00
2014-6-2,83,76,71,67,63,60,79,66,51,30.10,29.95,18,4,24,0.00
2014-6-3,88,75,64,68,59,46,96,62,31,29.96,29.87,11,2,17,0.08
2014-6-4,74,64,58,61,53,46,99,71,41,29.96,29.80,6,1,9,0.20
2014-6-5,70,61,52,58,48,38,99,66,36,29.98,29.81,6,1,10,0.01
2014-6-6,78,64,50,50,41,24,95,51,18,30.05,29.96,6,1,8,0.00
2014-6-7,84,68,54,46,42,30,71,41,18,30.11,29.93,11,1,13,0.00
2014-6-8,67,64,56,63,53,42,98,71,41,29.96,29.80,4,1,7,0.41
2014-6-9,74,66,56,60,56,51,99,71,48,30.01,29.93,5,1,8,0.00
2014-6-10,76,68,59,63,59,56,99,77,52,29.97,29.91,7,1,10,0.00
2014-6-11,79,72,66,64,62,59,89,71,54,29.91,29.77,14,4,21,0.00
2014-6-12,81,72,68,65,61,57,88,69,48,29.83,29.78,10,3,13,0.00
2014-6-13,72,66,59,64,54,43,87,65,45,30.01,29.78,7,2,11,0.00
2014-6-14,69,62,55,47,43,37,63,51,35,30.16,30.00,5,1,9,0.00
2014-6-15,86,76,52,47,38,26,82,28,13,30.17,30.03,11,3,15,0.00
2014-6-16,88,78,67,69,59,44,87,53,33,30.11,30.05,8,2,13,0.04
2014-6-17,91,81,71,71,65,57,90,61,34,30.08,29.90,14,3,22,0.04
2014-6-18,90,75,67,74,67,61,99,79,42,30.09,29.96,10,1,13,0.74
2014-6-19,80,72,64,69,62,47,99,74,50,30.14,29.99,5,1,8,0.28
2014-6-20,79,69,63,63,50,36,89,53,33,30.13,29.94,10,1,12,0.02
2014-6-21,78,67,60,64,56,39,98,71,31,29.98,29.91,4,0,7,0.11
2014-6-22,83,71,59,56,50,37,82,52,22,29.99,29.94,4,1,8,0.00
2014-6-23,88,74,67,72,60,47,93,63,42,30.01,29.93,10,2,18,0.20
2014-6-24,87,74,69,71,67,62,99,80,50,29.97,29.89,11,3,19,1.15
2014-6-25,75,70,66,70,67,62,99,90,69,30.00,29.89,4,0,6,0.50
2014-6-26,77,69,64,65,61,57,99,79,54,30.09,30.00,4,0,6,0.00
2014-6-27,85,73,62,67,61,55,98,70,43,30.15,30.09,4,1,8,0.00
2014-6-28,93,80,69,65,59,49,79,52,25,30.19,30.10,9,2,13,0.00
2014-6-29,89,78,70,73,68,60,95,72,44,30.14,30.01,10,3,19,0.27
2014-6-30,88,80,71,71,67,62,98,67,46,30.03,29.86,12,4,22,0.00
2014-7-1,90,80,76,70,66,59,79,63,38,29.87,29.66,19,3,28,0.00
2014-7-2,87,78,72,68,60,55,78,56,37,29.97,29.80,11,1,18,0.00
2014-7-3,76,69,59,62,57,53,86,68,49,30.13,29.94,9,1,14,0.00
2014-7-4,76,69,61,56,46,37,80,46,28,30.30,30.14,49,1,49,0.00
2014-7-5,80,72,55,52,49,46,84,46,33,30.32,30.15,7,1,11,0.00
2014-7-6,81,74,62,58,53,46,62,47,31,30.13,29.87,15,3,20,0.00
2014-7-7,83,76,68,69,62,54,98,64,50,29.87,29.73,14,3,25,0.20
2014-7-8,79,72,68,70,66,58,98,81,52,29.81,29.63,12,2,18,1.13
2014-7-9,80,70,63,66,60,52,99,73,43,30.04,29.80,6,1,11,0.08
2014-7-10,82,70,60,61,54,47,91,59,36,30.19,30.04,8,1,11,0.00
2014-7-11,85,71,59,62,52,44,88,54,30,30.25,30.18,4,1,7,0.00
2014-7-12,88,76,66,60,54,46,60,47,33,30.21,30.00,10,2,17,0.00
2014-7-13,84,76,70,72,65,58,94,69,49,30.01,29.88,11,2,17,0.13
2014-7-14,82,74,68,71,62,45,94,69,30,29.92,29.77,9,2,13,0.02
2014-7-15,75,70,60,65,54,42,87,60,35,29.90,29.73,9,2,16,0.04
2014-7-16,68,62,57,60,52,46,99,73,51,30.01,29.87,8,1,13,0.14
2014-7-17,76,65,58,58,49,29,97,62,21,30.17,30.01,5,1,8,0.04
2014-7-18,83,69,58,54,45,33,64,44,21,30.25,30.17,9,1,12,0.00
2014-7-19,71,66,63,67,63,53,97,89,57,30.17,30.06,9,2,11,0.26
2014-7-20,80,71,64,67,62,57,99,76,51,30.10,30.05,7,1,10,0.00
2014-7-21,86,74,64,68,57,45,99,60,28,30.17,30.08,4,0,6,0.00
2014-7-22,92,80,67,66,60,49,78,52,35,30.15,29.99,9,1,11,0.00
2014-7-23,79,70,64,70,63,55,97,78,64,30.06,29.94,5,1,9,0.06
2014-7-24,75,66,58,58,51,39,94,61,33,30.09,30.03,7,1,11,0.00
2014-7-25,79,66,54,59,50,41,91,60,33,30.13,30.00,7,1,9,0.08
2014-7-26,86,72,62,69,60,49,98,71,35,30.02,29.83,11,2,18,0.21
2014-7-27,87,72,63,72,66,59,98,86,47,29.83,29.61,13,1,23,2.04
2014-7-28,68,63,59,63,56,44,98,78,57,29.98,29.66,8,2,16,0.43
2014-7-29,71,64,59,51,46,41,65,53,37,30.03,29.95,5,1,9,0.00
2014-7-30,76,66,57,60,55,50,95,72,44,30.04,29.98,8,1,12,0.05
2014-7-31,80,69,60,61,52,36,99,61,24,30.09,30.00,7,1,10,0.01
2014-8-1,85,74,65,69,58,51,88,59,36,30.14,30.09,7,1,10,0.01
2014-8-2,80,68,63,65,62,58,99,82,52,30.16,30.08,8,1,11,0.78
2014-8-3,81,70,64,68,61,53,99,77,42,30.15,30.09,4,0,5,0.01
2014-8-4,86,74,64,62,57,47,85,59,28,30.15,30.07,5,1,8,0.00
2014-8-5,82,71,66,65,61,56,87,71,48,30.10,30.02,11,1,12,0.00
2014-8-6,80,71,64,65,57,42,90,65,32,30.07,30.00,4,1,7,0.00
2014-8-7,81,69,57,60,53,46,94,62,31,30.14,30.06,3,0,6,0.00
2014-8-8,82,69,60,57,53,44,87,60,29,30.17,30.11,7,1,10,0.00
2014-8-9,86,72,60,60,54,47,80,56,30,30.13,30.08,9,1,11,0.00
2014-8-10,88,76,68,63,58,52,78,56,33,30.11,30.02,11,2,14,0.00
2014-8-11,74,71,68,68,64,60,96,79,61,30.03,29.76,14,5,24,0.50
2014-8-12,79,70,65,69,65,58,99,85,54,29.83,29.72,11,2,15,1.07
2014-8-13,74,66,60,66,54,44,99,68,38,29.98,29.82,8,2,12,0.56
2014-8-14,69,62,58,55,48,40,85,60,38,30.03,29.92,8,1,12,0.00
2014-8-15,72,62,53,50,43,29,86,53,24,30.06,29.98,6,1,9,0.00
2014-8-16,83,69,55,62,46,36,75,48,21,30.02,29.90,12,2,17,0.00
2014-8-17,80,70,65,67,59,50,99,71,43,30.03,29.92,7,0,10,0.54
2014-8-18,81,71,64,59,52,46,67,53,32,29.99,29.87,8,1,10,0.00
2014-8-19,88,73,61,67,58,50,99,63,36,29.89,29.81,10,2,14,0.90
2014-8-20,82,72,66,71,66,63,99,83,56,29.98,29.83,12,2,18,0.69
2014-8-21,84,73,68,74,67,63,94,82,56,30.03,29.97,7,1,10,0.30
2014-8-22,85,75,70,72,68,64,95,79,55,30.02,29.96,4,1,6,0.02
2014-8-23,84,74,67,68,64,58,97,74,46,30.07,29.99,6,1,9,0.00
2014-8-24,82,73,67,65,62,58,89,69,49,30.13,30.05,10,2,14,0.00
2014-8-25,88,75,66,64,61,58,78,62,42,30.15,30.08,11,3,14,0.00
2014-8-26,90,77,69,67,62,58,81,62,44,30.15,30.05,9,3,15,0.00
2014-8-27,79,73,66,70,64,56,95,74,52,30.12,30.07,4,1,7,0.00
2014-8-28,73,65,57,56,50,42,90,62,37,30.17,30.09,5,1,8,0.00
2014-8-29,82,68,54,53,47,37,84,53,23,30.18,30.07,11,2,18,0.00
2014-8-30,90,79,69,64,58,49,63,49,34,30.09,29.96,15,4,20,0.00
2014-8-31,79,75,72,70,66,62,90,74,58,30.03,29.98,9,2,13,0.00
2014-9-1,85,76,70,70,67,63,95,75,50,30.00,29.85,14,4,23,0.00
2014-9-2,77,73,64,70,66,60,95,80,59,29.99,29.89,11,1,14,0.31
2014-9-3,85,72,62,69,59,50,99,67,33,30.10,29.99,6,1,8,0.00
2014-9-4,88,77,67,62,58,52,82,55,32,30.13,30.05,9,2,15,0.00
2014-9-5,92,80,68,68,65,62,97,60,42,30.12,29.95,15,4,21,1.16
2014-9-6,70,66,57,69,62,52,99,86,58,30.15,29.95,11,1,11,0.45
2014-9-7,76,64,54,58,51,41,97,67,35,30.23,30.14,4,1,5,0.00
2014-9-8,78,68,55,57,50,45,78,55,33,30.21,30.09,11,2,17,0.00
2014-9-9,78,70,64,64,59,55,83,68,55,30.12,30.02,11,4,14,0.00
2014-9-10,79,73,67,71,66,62,97,80,61,30.03,29.66,16,5,22,1.42
2014-9-11,73,63,57,70,57,50,96,82,74,30.17,29.70,11,2,18,0.25
2014-9-12,63,58,55,54,50,45,94,77,58,30.25,30.13,5,1,8,0.02
2014-9-13,62,56,52,55,47,40,96,71,55,30.32,30.06,10,2,15,0.15
2014-9-14,65,55,45,48,45,39,97,71,44,30.34,30.22,6,1,8,0.00
2014-9-15,68,57,49,57,49,44,99,78,45,30.22,30.05,8,1,11,0.39
2014-9-16,67,57,50,58,51,45,99,81,51,30.14,30.06,4,0,7,0.08
2014-9-17,71,57,49,50,47,40,96,71,37,30.09,29.99,8,1,11,0.00
2014-9-18,70,58,49,52,49,46,94,74,45,30.20,30.01,4,1,8,0.00
2014-9-19,72,60,48,51,47,39,99,67,35,30.25,30.08,7,1,11,0.00
2014-9-20,80,69,58,61,58,51,89,68,44,30.09,29.86,14,4,21,0.00
2014-9-21,75,66,55,66,56,47,92,72,50,29.95,29.69,10,3,18,0.11
2014-9-22,56,52,47,51,42,36,92,68,51,30.27,29.95,4,1,11,0.04
2014-9-23,69,56,46,50,44,38,86,67,35,30.37,30.26,8,1,10,0.00
2014-9-24,75,64,53,53,48,42,93,61,34,30.44,30.35,10,2,13,0.00
2014-9-25,75,64,57,56,52,46,84,64,42,30.37,30.26,9,2,14,0.00
2014-9-26,79,65,56,58,54,47,93,70,41,30.31,30.25,8,1,11,0.00
2014-9-27,80,66,55,57,52,46,89,63,35,30.31,30.20,7,1,10,0.00
2014-9-28,78,65,55,60,56,48,96,74,42,30.21,30.06,3,0,8,0.00
2014-9-29,78,64,54,58,54,49,97,73,42,30.06,29.91,3,0,4,0.00
2014-9-30,62,60,53,61,55,51,99,86,74,30.00,29.86,4,1,8,0.33
2014-10-1,68,60,52,60,56,52,99,87,69,30.06,29.99,2,0,4,0.00
2014-10-2,77,65,53,57,55,48,99,73,46,30.09,29.90,11,3,16,0.01
2014-10-3,72,64,56,63,57,52,99,79,57,29.91,29.57,16,4,21,0.71
2014-10-4,56,46,41,56,35,23,99,67,37,29.76,29.63,8,2,18,0.01
2014-10-5,53,47,41,38,34,28,88,61,43,29.81,29.73,9,2,14,0.00
2014-10-6,60,54,49,52,44,34,89,70,54,29.78,29.69,12,4,19,0.00
2014-10-7,61,55,50,55,50,46,98,83,66,29.85,29.70,11,3,18,0.12
2014-10-8,60,55,49,53,42,29,97,66,35,30.02,29.78,8,2,15,0.00
2014-10-9,58,52,44,44,38,30,93,60,44,30.09,29.97,4,1,10,0.00
2014-10-10,62,50,43,47,42,39,97,75,47,30.11,30.06,4,0,7,0.00
2014-10-11,57,49,41,41,37,31,88,66,43,30.22,30.07,4,1,8,0.00
2014-10-12,66,52,39,54,39,31,95,64,31,30.22,30.05,11,2,19,0.00
2014-10-13,73,65,58,60,57,53,94,76,62,30.06,29.92,14,5,24,0.07
2014-10-14,78,69,58,60,57,52,98,67,42,29.92,29.66,19,6,28,0.33
2014-10-15,67,60,57,58,55,50,99,87,58,29.84,29.74,9,2,15,0.86
2014-10-16,62,58,55,58,56,52,99,94,71,29.77,29.71,3,0,6,0.28
2014-10-17,69,59,54,56,51,45,98,75,51,29.73,29.55,14,2,21,0.06
2014-10-18,55,49,46,52,42,33,97,78,62,30.05,29.65,11,2,17,0.24
2014-10-19,55,47,44,39,34,30,73,60,45,30.17,30.01,6,1,11,0.00
2014-10-20,58,52,46,52,44,34,98,74,58,30.01,29.81,97,3,97,0.41
2014-10-21,54,50,48,53,49,43,99,94,77,30.11,29.82,8,1,12,0.41
2014-10-22,52,50,48,48,44,41,99,82,68,30.25,30.10,7,1,13,0.00
2014-10-23,58,50,42,50,45,42,99,85,64,30.21,30.10,4,1,10,0.00
2014-10-24,105,72,40,85,42,37,99,73,42,30.09,29.98,4,1,8,0.00
2014-10-25,65,57,51,53,45,36,84,66,42,29.98,29.76,11,2,19,0.00
2014-10-26,58,52,42,39,34,27,81,51,35,29.96,29.81,9,2,18,0.00
2014-10-27,73,58,39,55,39,23,86,54,23,29.99,29.81,17,3,27,0.00
2014-10-28,74,66,52,58,52,42,84,63,46,29.97,29.81,14,3,23,0.04
2014-10-29,58,49,44,43,38,31,96,66,40,30.06,29.95,9,1,16,0.13
2014-10-30,51,45,42,43,38,34,96,78,56,30.13,30.03,6,1,10,0.01
2014-10-31,50,45,43,44,37,33,98,75,55,30.03,29.85,8,1,10,0.13
2014-11-1,44,40,37,43,32,17,99,77,44,30.25,29.92,15,4,21,0.40
2014-11-2,44,38,34,30,24,18,66,57,46,30.38,30.24,8,2,17,0.00
2014-11-3,63,50,33,23,18,11,65,31,18,30.30,30.11,14,2,21,0.00
2014-11-4,67,56,50,52,34,19,96,48,24,30.13,29.93,19,4,27,0.17
2014-11-5,59,50,43,42,36,27,88,60,31,30.17,30.03,10,1,13,0.00
2014-11-6,50,47,45,47,43,34,99,88,63,30.02,29.71,10,2,18,0.44
2014-11-7,45,38,33,43,28,22,92,65,51,30.07,29.87,10,2,18,0.04
2014-11-8,46,40,34,40,30,21,92,66,55,30.00,29.74,12,4,25,0.02
2014-11-9,50,45,38,37,31,24,96,62,38,29.96,29.86,11,2,24,0.02
2014-11-10,62,53,45,33,29,22,59,42,22,30.00,29.82,13,4,19,0.00
2014-11-11,67,57,43,54,38,26,97,52,32,29.90,29.72,15,5,25,0.08
2014-11-12,43,37,33,42,25,19,95,61,50,30.21,29.90,11,2,18,0.00
2014-11-13,33,31,27,28,23,18,94,72,55,30.18,30.11,6,1,11,0.01
2014-11-14,33,27,24,30,24,20,94,86,65,30.29,30.13,8,1,11,0.00
2014-11-15,38,31,27,26,18,11,91,61,38,30.38,30.23,8,1,12,0.13
2014-11-16,35,32,29,32,21,14,96,65,44,30.23,29.89,6,1,9,0.01
2014-11-17,34,28,16,33,24,0,99,84,49,29.89,29.63,9,1,17,0.00
2014-11-18,21,15,10,3,-2,-6,57,48,41,30.16,29.86,13,4,22,1.56
2014-11-19,34,22,13,24,10,-1,69,58,46,30.16,29.78,15,4,29,0.00
2014-11-20,32,25,22,19,9,3,85,52,36,30.13,29.88,13,4,21,0.00
2014-11-21,27,23,20,15,7,1,76,50,35,30.46,30.13,9,2,15,0.00
2014-11-22,50,36,21,40,24,3,99,65,37,30.37,30.01,13,6,24,0.17
2014-11-23,59,51,43,51,40,32,93,66,50,30.04,29.34,23,6,37,0.11
2014-11-24,64,54,40,55,43,25,93,68,53,29.80,29.23,24,8,42,0.21
2014-11-25,40,36,32,27,24,21,69,61,53,30.21,29.80,12,3,22,0.00
2014-11-26,38,34,32,28,23,19,74,63,48,30.18,30.01,4,0,5,0.00
2014-11-27,34,32,29,32,26,17,99,81,56,30.23,30.00,8,1,12,0.00
2014-11-28,30,26,23,19,12,7,75,56,42,30.33,30.11,11,3,16,0.00
2014-11-29,50,39,29,38,24,16,65,55,44,30.11,29.81,19,7,24,0.08
2014-11-30,62,56,49,54,47,38,99,71,64,30.03,29.82,15,5,23,0.08
2014-12-1,49,35,27,48,27,12,99,76,47,30.57,30.03,10,2,16,0.07
2014-12-2,34,30,25,33,23,12,99,76,53,30.55,30.08,9,2,18,0.01
2014-12-3,40,35,31,33,26,16,92,70,47,30.31,30.04,12,2,24,0.01
2014-12-4,37,31,28,24,21,17,79,66,53,30.42,30.30,7,0,11,0.00
2014-12-5,41,38,32,40,30,18,99,74,48,30.35,30.15,9,2,15,0.08
2014-12-6,40,38,34,40,33,21,99,82,53,30.52,30.12,12,4,21,0.60
2014-12-7,41,34,29,24,19,11,69,55,36,30.64,30.44,12,1,18,0.00
2014-12-8,44,39,34,33,11,2,83,32,22,30.44,30.09,18,8,27,0.01
2014-12-9,40,38,35,38,33,27,99,85,67,30.13,30.06,11,2,19,0.08
2014-12-10,37,32,30,34,27,22,95,80,69,30.17,30.01,10,3,18,0.04
2014-12-11,35,32,27,26,20,14,81,64,42,30.06,29.97,14,4,21,0.00
2014-12-12,33,32,30,29,26,24,84,79,72,30.21,30.05,10,2,18,0.00
2014-12-13,43,35,29,43,34,28,99,96,85,30.19,30.03,8,2,11,0.00
2014-12-14,49,46,42,48,44,40,99,95,87,30.09,30.01,8,1,17,0.01
2014-12-15,56,48,45,46,43,39,99,82,60,30.09,29.85,12,2,23,0.01
2014-12-16,50,46,44,48,44,40,98,91,81,29.89,29.69,13,4,20,0.33
2014-12-17,44,34,29,42,26,18,96,74,61,30.13,29.88,11,4,21,0.04
2014-12-18,31,30,29,28,23,17,93,75,59,30.20,30.13,10,2,17,0.00
2014-12-19,38,30,29,29,22,16,97,71,48,30.30,30.13,5,1,11,0.02
2014-12-20,32,30,28,21,19,17,68,64,59,30.29,30.23,4,0,6,0.00
2014-12-21,32,30,27,21,19,17,72,64,56,30.31,30.18,7,1,11,0.00
2014-12-22,45,35,27,31,25,17,75,66,56,30.19,29.86,13,4,21,0.02
2014-12-23,54,47,38,50,43,31,95,86,72,29.87,29.75,14,5,24,0.04
2014-12-24,60,54,41,55,50,34,98,87,74,29.75,29.26,15,5,27,0.18
2014-12-25,43,39,37,36,31,25,87,71,54,30.17,29.56,11,3,19,0.01
2014-12-26,51,41,33,34,31,26,83,66,50,30.21,30.10,12,4,19,0.00
2014-12-27,55,48,42,46,34,26,95,60,34,30.17,29.97,15,4,24,0.01
2014-12-28,47,36,33,46,32,24,99,86,67,30.18,29.97,8,2,14,0.19
2014-12-29,34,30,26,24,17,9,69,58,43,30.35,30.17,7,1,10,0.00
2014-12-30,27,24,21,15,9,4,66,53,43,30.47,30.34,11,2,14,0.00
2014-12-31,25,20,16,9,-1,-9,66,40,24,30.43,30.13,12,4,20,0.00
2015-1-1,34,26,18,11,2,-5,46,36,24,30.13,29.91,19,4,26,0.00
2015-1-2,34,29,27,22,16,11,76,58,47,30.36,30.10,8,1,12,0.00